Location: Coupvray
(48.8929°N, 2.7967°E)
Time: 08:16:40
(UTC+00:00)

Cosmos 540 Rocket - Visible Passes

Search period start: 21 October 2020 00:00
Search period end: 31 October 2020 00:00
Orbit: 740 x 753 km, 74.1° (Epoch: 20 October)

Date Brightness Start Highest point End Pass type
(mag) Time Alt. Az. Time Alt. Az. Time Alt. Az.
25 Oct 6.0 05:51:03 10° N 05:53:53 15° NE 05:56:44 10° ENE visible
28 Oct 6.0 05:22:17 10° N 05:25:23 16° NE 05:28:27 10° E visible
30 Oct 5.4 05:36:22 10° N 05:40:43 27° NE 05:45:01 10° ESE visible
